Regional Weather Roundup
Issued by NWS

Home | Current Version | Previous Version | Graphics & Text | Print | Product List | Glossary On
Versions: 1 2 3 4 5 6 7 8 9 10 11 12 13 14 15 16 17 18 19 20 21 22 23 24 25 26 27 28 29 30 31 32 33 34 35 36 37 38 39 40 41 42 43 44 45 46 47 48 49 50
955
ASUS45 KBOU 141507
RWRCO

WEATHER ROUNDUP FOR COLORADO
NATIONAL WEATHER SERVICE DENVER/BOULDER CO
800 AM MST SUN FEB 14 2016

NOTE: "FAIR" INDICATES FEW OR NO CLOUDS BELOW 12000 FEET WITH NO
SIGNIFICANT WEATHER AND/OR OBSTRUCTIONS TO VISIBILITY.

COZ001>005-013-030-031-141600-
...NORTHWEST COLORADO...

CITY           SKY/WX    TMP DP  RH WIND       PRES   REMARKS
CRAIG          CLOUDY    15  12  88 CALM      30.13F
HAYDEN         CLOUDY    23  16  74 CALM      30.11S
MEEKER         CLOUDY    22  14  71 NE3       30.14F
MOUNT WERNER   NOT AVBL
STEAMBOAT SPGS CLOUDY    18  14  86 W3        30.10F
WALDEN         CLOUDY    32  14  47 SW10      30.05F WCI  24
$$

COZ006>008-011-141600-
...WEST CENTRAL VALLEYS...

CITY           SKY/WX    TMP DP  RH WIND       PRES   REMARKS
GRAND JUNCTION FAIR      29  26  89 E3        30.17R
MONTROSE       FAIR      28  21  75 CALM      30.18F
EAGLE          PTCLDY    21  16  79 CALM      30.19S
RIFLE          FAIR      22  18  85 SE3       30.20R
DELTA          FAIR      31  26  83 NE5       30.20S WCI  26
NUCLA          FAIR      30  23  74 CALM      30.22R
$$

COZ017>023-064>068-141600-
...SOUTHWEST COLORADO...

CITY           SKY/WX    TMP DP  RH WIND       PRES   REMARKS
DURANGO        FAIR      21  11  65 E5        30.15S WCI  15
CORTEZ         FAIR      25  18  74 NE6       30.16F WCI  18
PAGOSA SPRINGS FAIR      21  12  68 CALM      30.17S
TELLURIDE      NOT AVBL
WOLF CREEK PAS FAIR      23  -9  23 W15       30.25S WCI  10
$$

COZ009-010-012-014-032>034-037-058>063-141600-
...CENTRAL COLORADO...

CITY           SKY/WX    TMP DP  RH WIND       PRES   REMARKS
ASPEN          MOCLDY    25  13  60 SW7       30.14F WCI  17
BUENA VISTA    FAIR      39   6  26 W22G36    30.07S
COPPER MTN     CLOUDY    21   9  58 W10G20    30.12S WCI  10
BERTHOUD PASS  PTSUNNY   14   3  62 NW36G66   30.02R HAZE    WCI  -8
COTTONWOOD PAS FAIR      32   3  29 NW10G23   30.07R WCI  24
GUNNISON       FAIR      -2 -26  32 SW3       30.24F
KREMMLING      CLOUDY    14   9  79 CALM      30.14F
LEADVILLE      PTSUNNY   26   7  44 N16G22    30.11S WCI  14
MONARCH PASS   FAIR      16  10  79 MISG      30.26R
SALIDA         NOT AVBL
SUNLIGHT       FAIR      23  14  68 CALM      30.22R
WILKERSON PASS FAIR      23   0  36 W24G40    30.02F WCI   7
$$

COZ069>075-141600-
...SAN LUIS VALLEY/SANGRE DE CRISTO MOUNTAINS...

CITY           SKY/WX    TMP DP  RH WIND       PRES   REMARKS
ALAMOSA        FAIR      23  18  81 SW6       30.12F WCI  16
LA VETA PASS   FAIR      30   5  34 MISG      30.06F
SAGUACHE       FAIR      30  14  51 NW14      30.15R WCI  20
$$

COZ035-036-038>040-141600-
...NORTHERN COLORADO FRONT RANGE...

CITY           SKY/WX    TMP DP  RH WIND       PRES   REMARKS
DENVER INTL AP PTSUNNY   37  20  50 SW8       29.90S
DMNS CITY PARK   N/A     36  20  52 SE12G17   29.91S
AURORA         PTSUNNY   37  19  48 S8        29.92R
FRONT RANGE AP PTSUNNY   32  23  69 SE13      29.91S WCI  22
ERIE MUNI ARPT FAIR      39  19  44 CALM      29.89R
BOULDER MUN AP FAIR      41  18  38 E14       29.86R
CENTENNIAL     PTSUNNY   33  21  61 SE21      29.91S WCI  21
BROOMFIELD     PTSUNNY   39  18  41 SE3       29.89
FORT COLLINS   FAIR      28  23  80 CALM      29.88F
LONGMONT       FAIR      35  26  68 NE8       29.90R WCI  29
$$

COZ041-046-047-076>085-087-088-141600-
...PIKES PEAK/PALMER DIVIDE AND SOUTHERN FOOTHILLS...

CITY           SKY/WX    TMP DP  RH WIND       PRES   REMARKS
COLO. SPRINGS  PTSUNNY   29  24  82 S9        29.99F WCI  20
A. F. ACADEMY  FAIR      24  22  90 N5        29.99S WCI  18
SCHRIEVER AFB  FAIR      28  25  89 SW8G16    30.01S WCI  20
ELLICOTT       FAIR     N/A N/A N/A CALM      29.99F
FALCON         FAIR      28  25  87 SW9       30.00S WCI  19
FORT CARSON    FAIR      29  25  82 E5        29.98F WCI  24
LIMON          FAIR      25  22  88 CALM      29.98S
MONUMENT HILL  FAIR      28  19  69 S10       29.97R WCI  19
TRINIDAD       FAIR      31  25  78 SW10      30.03F WCI  22
$$

COZ042>045-048>051-090-091-141600-
...NORTHEAST COLORADO...

CITY           SKY/WX    TMP DP  RH WIND       PRES   REMARKS
GREELEY ARPT   FAIR      32  25  74 SE9       29.89F WCI  24
AKRON          FAIR      30  23  75 S7        29.93S WCI  23
BURLINGTON     FAIR      32  24  72 SW9       29.98F WCI  24
WRAY           FAIR      33  26  76 SW8       29.95S WCI  25
STERLING       FAIR      32  27  80 SW5       29.91F WCI  27
HOLYOKE        FAIR      32  28  86 SW8       29.92R WCI  25
FORT MORGAN    FAIR      29  25  85 CALM      29.93F
$$

COZ086-089-092>099-141600-
...SOUTHEAST COLORADO...

CITY           SKY/WX    TMP DP  RH WIND       PRES   REMARKS
PUEBLO         FAIR      32  26  78 CALM      30.00F
LA JUNTA       FAIR      33  26  75 SW10      30.03F WCI  25
LAMAR          FAIR      31  28  89 W8        30.02F WCI  23
SPRINGFIELD      N/A     34  26  72 W5        30.02F WCI  30
$$




USA.gov is the U.S. government's official web portal to all federal, state and local government web resources and services.